VABO

Details ICAO VABO (BDQ)
Name VADODARA
Region India
Timezone Asia/Kolkata (UTC+5.5)
Plans Departing 12
Arriving 18
Stats Elevation 129 ft / 39 m (AMSL)
Location 22.336164° 73.226291°
Runways 1
Magnetic Variation 0.358° E
Sunrise 2018-05-26 00:25:12 UTC / 2018-05-26 05:55:12 Local
Sunset 2018-05-26 13:45:55 UTC / 2018-05-26 19:15:55 Local
Advertisement - Login to hide

Runways

ID Width Length Bearing (true) Bearing (mag) Surface Threshold Offset Overrun Length
04 150 ft / 46 m 8,084 ft / 2,464 m 44.10° 43.74° Asphalt 700 ft / 213 m 200 ft / 61 m
22 150 ft / 46 m 8,084 ft / 2,464 m 224.11° 223.75° Asphalt 0 ft / 0 m 200 ft / 61 m

Approach Navaids

Runway Type Ident Frequency Range Bearing (true) Bearing (mag) Slope Elevation
22 Localiser VDD 110.50 MHz 18 nm / 33 km 224.11° 223.75° - 129 ft / 39 m (AMSL)
22 Glidescope VDD 110.50 MHz 10 nm / 19 km 224.11° 223.75° 3.00° 129 ft / 39 m (AMSL)
22 DME VDD 110.50 MHz 18 nm / 33 km - - - 129 ft / 39 m (AMSL)

Map

Weather


0- 5 10 15 20 25 30 35+ Temperature / ° C

Clouds and Precipitation
Forecast for 2018-05-26 00:00 UTC. Updated 2 hours ago

Ground ~20,000 ft ~40,000 ft Winds

METAR

VABO 260030Z 22005KT 6000 NSC 29/24 Q1003 NOSIG

TAF

Not found

Frequencies

Tower 122.35 MHz BARODA TWR
Warning: Do not use this data for real-world aviation or navigation. No guarantee of current accuracy is given.